SCP
0 0 0 0 0 0 0 0 0 0 0 0 0 0 0 0 0 0 0 0 0 0 0 0 0 0 0 0 0 0 0 0 0 0 0 0 0 0 0 0 0 0 0 0 0 0 0 0 0 0 0 0 0 0
0 0 0 0 0 0 0 0 0 0 0 0 0 0 0 0 0 0 0 0 0 0 0 0 0 0 0 0 0 0 0 0 0 0 0 0 0 0 0 0 0 0 0 0 0 0 0 0 0 0 0 0 0 0
0 0 0 0 0 0 0 0 0 0 0 0 0 0 0 0 0 0 0 0 0 0 0 0 0 0 0 0 0 0 0 0 0 0 0 0 0 0 0 0 0 0 0 0 0 0 0 0 0 -0 -0 0 0 0
0 0 0 0 0 0 0 0 0 0 0 0 0 0 0 0 0 0 0 0 0 0 0 0 0 0 0 0 0 0 0 0 0 0 0 0 0 0 0 0 0 0 0 0 0 0 0 0 0 -0 0 0 0 0
0 0 0 0 0 0 0 0 0 0 0 0 0 0 0 0 0 0 0 0 0 0 0 -0 0 0 0 0 0 0 0 0 0 0 0 0 0 0 0 0 0 0 0 0 0 -0 0 0 -0 0 0 0 0 0
0 0 0 0 0 0 0 0 0 0 0 0 0 0 0 0 0 0 0 0 -0 -0 0 0 0 0 0 0 0 0 0 0 0 0 0 0 0 0 0 0 0 0 0 0 0 0 0 0 0 0 0 0 0 0
0 0 0 0 0 0 0 0 0 0 0 0 0 0 0 0 0 0 0 0 0 0 -0 0 0 0 0 0 0 0 0 0 0 0 0 0 0 0 0 0 0 0 0 0 0 0 0 0 0 -0 0 0 0 0
0 0 0 0 0 0 0 0 0 0 0 0 0 0 0 0 0 0 0 0 0 0 0 0 0 0 0 0 0 0 0 0 0 0 0 0 0 0 0 0 0 0 0 0 0 0 0 0 -0 -0 0 0 0 0
0 0 0 0 0 0 0 0 0 0 0 0 0 0 0 0 0 0 0 0 0 0 0 0 0 0 0 0 0 0 0 0 0 0 0 0 0 0 0 0 0 0 0 0 -0 0 -0 -0 0 -0 0 0 0 0
0 0 0 0 0 0 0 0 0 0 0 0 0 0 0 0 0 0 0 0 0 0 0 0 0 0 0 0 0 0 0 0 0 0 0 0 0 0 0 0 0 0 0 0 0 0 -0 0 -0 -0 -0 0 0 0
0 0 0 0 0 0 0 0 0 0 0 0 0 0 0 0 0 0 0 0 0 0 0 0 0 0 0 0 0 0 0 0 0 0 0 0 0 0 0 0 0 0 0 0 -0 0 0 0 0 0 0 0 0 0
0 0 0 0 0 0 0 0 0 0 0 0 0 0 0 0 0 0 0 0 0 0 0 0 0 0 0 0 0 0 0 0 0 0 0 0 0 0 0 0 0 0 0 0 0 0 -0 0 0 0 0 0 0 0
0 0 0 0 -0 -0 0 0 0 0 0 0 0 0 0 0 0 0 0 0 0 0 -0 0 -0 -0 0 0 0 0 0 0 0 0 0 0 0 0 0 0 0 0 -0 0 0 0 0 0 0 0 0 0 0 0
0 0 -0 0 0 0 0 0 0 0 0 0 0 0 0 0 0 0 0 0 0 0 0 0 0 0 -0 0 0 0 0 -0 0 0 0 0 0 0 0 0 0 0 0 0 0 0 0 0 0 0 0 0 0 0
0 0 0 0 0 0 0 0 0 0 0 0 0 0 0 0 -0 0 0 0 0 0 0 0 0 0 0 0 0 0 0 -0 -0 0 0 0 0 0 0 0 0 0 0 0 0 0 0 0 0 0 0 0 0 0
0 0 0 0 0 0 0 0 0 0 0 0 0 0 0 0 0 0 0 0 0 0 0 0 -0 -0 -0 0 0 0 -0 0 0 0 0 0 0 0 0 0 0 0 0 0 0 0 0 0 0 0 0 0 0 0
0 0 0 0 0 0 0 0 0 0 0 0 0 0 0 0 0 0 0 0 0 0 0 -0 -0 -0 -0 0 0 0 0 -0 0 0 0 0 0 0 0 0 0 0 0 0 0 0 0 0 0 0 0 0 0 0
0 0 0 0 0 0 0 0 0 0 0 0 0 0 0 0 0 0 0 0 0 0 0 0 -0 -0 0 0 0 0 0 0 0 0 0 0 0 0 0 0 0 0 0 0 0 0 0 0 0 0 0 0 -0 0
0 0 0 0 0 0 0 0 0 0 0 0 0 0 0 0 0 0 0 0 -0 0 0 0 0 0 0 0 0 0 0 0 0 0 0 0 0 0 0 0 0 0 0 0 0 0 0 0 0 0 0 -0 0 0
0 0 0 0 0 0 0 0 0 0 0 0 0 0 0 0 0 0 0 -0 0 0 0 0 0 0 0 0 0 0 0 0 0 0 0 0 0 0 0 0 0 0 0 0 0 0 0 0 0 -0 -0 -0 -0 -0
0 0 0 0 0 -0 -0 -0 -0 0 0 0 0 0 0 0 0 -0 -0 -0 0 0 0 0 0 -0 0 0 0 0 0 0 0 0 0 0 0 0 0 0 0 0 0 0 0 0 0 0 -0 -0 -0 -0 -0 -0
0 -0 -0 -0 -0 -0 -0 -0 -0 0 0 0 0 0 0 0 0 -0 0 0 0 0 0 0 0 0 0 0 0 0 0 -0 -0 0 0 0 0 0 0 0 0 0 0 0 -0 -0 0 0 0 -0 -0 -0 0 0
0 0 -0 -0 0 0 0 -0 -0 -0 -0 0 0 0 0 0 0 0 0 0 -0 -0 0 0 0 0 0 0 0 0 0 0 0 0 0 0 0 0 0 0 0 0 0 0 0 -0 -0 0 0 0 0 0 0 0
0 0 0 0 0 0 0 0 0 0 0 0 0 0 0 0 0 0 0 0 0 -0 0 0 0 0 0 0 0 0 0 0 0 0 0 0 0 0 0 0 0 0 0 0 0 -0 0 0 0 0 0 0 0 0
0 0 0 0 0 0 0 0 0 0 0 0 0 0 0 0 0 0 0 0 0 0 0 0 0 0 0 0 0 0 0 0 0 0 0 -0 -0 -0 0 0 0 0 0 0 0 0 0 0 0 0 0 0 0 0
0 0 0 0 0 0 0 0 0 0 0 0 0 0 0 0 0 0 0 0 0 0 0 0 0 0 0 0 0 0 0 0 0 0 0 0 -0 -0 -0 -0 0 0 0 0 0 0 0 0 0 0 0 0 0 0
0 0 0 0 0 0 0 0 0 0 0 0 0 0 0 0 0 0 0 0 0 0 0 0 0 0 0 0 0 0 0 0 0 0 0 0 0 0 0 0 0 0 0 0 0 0 0 0 0 0 0 0 0 0
0 0 0 0 0 0 0 0 0 0 0 0 0 0 0 0 0 0 0 0 0 0 0 0 0 0 0 0 0 0 0 0 0 0 0 0 0 -0 -0 0 0 0 0 0 0 0 0 0 0 0 0 0 0 0
0 0 0 0 0 0 0 0 0 0 0 0 0 0 -0 -0 0 0 0 0 0 0 0 0 0 0 0 0 0 0 0 0 0 0 0 0 0 0 0 0 0 0 0 0 0 0 0 0 0 0 0 0 0 0
0 0 0 0 0 0 0 0 0 0 0 0 0 0 0 0 0 0 0 0 0 0 0 0 0 0 0 0 0 0 0 0 0 0 0 0 0 0 0 0 0 0 0 0 0 0 0 0 0 0 0 0 0 0
0 0 0 0 0 0 0 0 0 0 0 0 0 0 0 0 0 0 0 0 0 0 0 0 0 0 0 0 0 0 0 0 0 0 0 0 0 0 0 0 0 0 0 0 0 0 0 0 0 0 0 0 0 0
0 0 0 0 0 0 0 0 0 0 0 0 0 0 0 0 0 0 0 0 0 0 0 0 0 0 0 0 0 0 0 0 0 0 0 0 0 0 0 0 0 0 0 0 0 0 0 0 0 0 0 0 0 0
0 0 0 0 0 0 0 0 0 0 0 0 0 0 0 0 0 0 0 0 0 0 0 0 0 0 0 0 0 0 0 0 0 0 0 0 0 0 0 0 -0 -0 0 0 0 0 0 0 0 0 0 0 0 0
Wind_Speed_500mb
24 23 22 21 17 14 12 10 12 9 6 5 5 6 7 5 4 6 5 3 12 9 20 21 14 10 6 5 5 10 6 2 4 9 9 7 8 12 7 11 5 9 11 7 3 4 11 10 16 13 2 4 39 39
18 17 21 22 18 13 12 12 9 6 6 6 8 8 6 6 6 5 6 7 10 15 17 22 24 20 34 25 10 7 5 6 5 5 2 3 6 9 9 5 9 8 10 7 14 8 5 7 12 22 15 30 35 40
18 15 12 19 20 14 10 9 7 6 7 8 8 7 8 4 7 6 6 10 14 17 28 19 4 5 26 45 39 13 9 10 2 12 7 4 8 4 9 9 7 10 15 7 5 14 8 14 18 21 17 33 44 41
17 18 17 14 21 21 14 10 8 7 6 8 9 8 5 5 8 9 9 8 8 10 9 10 4 6 15 16 27 44 35 10 7 13 7 5 5 4 3 2 5 4 16 15 7 21 14 13 21 21 33 48 45 39
13 12 13 14 13 19 19 12 8 7 6 8 8 9 5 7 8 11 13 11 13 6 8 24 49 3 11 23 39 30 34 43 23 9 7 5 8 3 4 4 10 12 12 18 9 17 15 8 20 42 50 46 45 46
13 11 10 10 11 14 19 16 13 10 10 9 9 8 7 10 10 10 2 2 3 7 5 9 20 13 9 10 25 50 54 31 16 12 13 14 21 10 6 6 12 12 8 15 15 3 11 20 33 37 46 46 43 39
16 15 14 10 10 11 19 20 18 15 14 13 12 13 13 13 10 4 1 2 12 9 5 12 12 10 25 14 10 27 32 22 26 16 15 18 12 17 12 17 11 15 10 10 10 19 11 18 31 25 42 45 42 39
21 21 18 15 13 12 14 15 19 21 18 14 12 13 12 10 11 10 9 15 17 11 7 6 8 10 13 4 1 12 16 25 20 17 9 21 19 14 14 30 45 20 34 21 15 6 27 32 39 31 46 46 42 40
23 22 19 18 16 14 13 12 13 14 14 13 11 9 9 6 2 0 2 2 8 12 4 6 5 6 18 11 5 5 14 10 15 15 17 16 16 20 14 26 34 53 65 26 19 41 42 53 56 55 52 45 40 39
26 24 21 19 18 17 14 12 12 12 13 10 7 4 1 3 2 6 4 2 6 12 11 9 10 10 13 14 5 4 9 8 10 16 13 13 27 45 25 33 46 54 49 47 22 26 39 39 60 67 60 48 41 40
31 30 29 26 23 23 20 14 14 18 15 8 7 4 3 2 3 1 0 4 2 6 9 10 16 17 13 11 8 6 5 6 8 10 13 12 20 33 46 58 54 48 46 41 55 45 42 49 61 57 54 49 41 35
35 35 33 31 29 27 23 18 18 24 14 12 8 4 4 3 5 3 4 5 7 6 8 8 6 14 13 14 13 10 5 5 9 5 7 10 12 36 56 70 79 73 56 40 40 45 45 54 55 52 53 50 40 34
32 31 32 30 30 27 25 23 24 27 18 12 5 4 3 5 6 7 9 7 6 7 7 7 7 8 10 13 12 7 7 8 3 6 7 6 10 23 44 54 54 62 53 43 43 46 44 52 51 48 56 47 41 33
26 27 26 26 26 29 31 25 31 34 20 7 9 6 7 7 8 8 7 5 8 14 25 29 18 8 12 9 8 7 9 5 4 7 8 3 24 30 24 32 32 47 51 42 46 51 48 45 48 52 52 47 37 29
25 22 22 23 26 29 25 27 38 41 11 8 8 6 11 11 9 8 13 14 21 31 29 10 10 8 5 8 7 6 6 8 8 7 8 31 43 32 23 26 36 50 49 42 46 51 53 55 66 61 48 37 29 28
17 20 22 21 27 34 24 33 40 23 10 8 7 7 9 8 11 9 12 28 21 17 15 12 5 6 9 5 8 10 6 5 6 10 31 38 26 14 14 29 46 59 51 53 52 59 68 75 67 55 42 33 29 29
15 13 20 26 27 26 32 35 24 9 9 8 9 17 22 19 19 21 18 20 21 11 5 4 7 9 3 7 6 5 6 8 25 28 39 23 7 11 26 43 57 56 59 62 65 74 69 56 50 50 52 48 44 39
16 18 23 31 37 36 27 13 7 8 9 14 11 10 14 20 20 25 20 18 10 6 5 4 8 5 4 3 3 3 15 31 20 21 24 8 16 25 37 49 58 64 78 85 78 70 60 58 58 61 58 52 46 40
18 24 25 33 45 23 8 13 6 6 12 8 15 21 19 19 24 22 25 21 3 13 19 4 4 4 4 6 16 31 33 33 26 17 7 14 28 40 51 61 76 83 76 70 61 61 60 60 64 58 50 44 39 34
25 39 30 40 29 7 6 6 9 4 5 4 10 11 10 12 15 16 12 9 9 14 5 5 4 9 12 38 28 30 35 24 10 21 30 29 38 51 66 71 74 74 73 68 66 68 65 63 56 50 44 39 34 30
39 27 24 33 8 1 6 6 4 7 5 6 7 7 8 12 9 7 4 6 5 5 6 12 33 48 33 18 14 9 8 2 11 23 44 39 45 43 44 65 69 67 68 67 62 59 53 50 46 40 35 30 26 23
21 16 8 12 5 4 5 12 6 3 5 5 5 4 6 6 4 4 7 4 6 7 13 30 45 37 42 22 20 15 23 34 37 39 48 57 58 37 48 49 59 50 48 50 49 46 41 36 32 29 27 26 22 18
12 10 5 8 5 5 5 12 9 7 5 3 3 4 1 3 3 3 4 5 6 18 23 28 21 38 44 49 47 53 47 44 51 45 41 52 56 42 41 34 40 44 41 38 36 33 31 27 24 21 21 25 24 20
3 5 6 8 17 6 8 8 8 5 5 4 4 2 3 1 5 3 3 5 8 13 19 22 14 26 42 40 37 30 29 30 25 35 41 40 41 42 39 33 34 32 28 25 24 26 27 25 23 22 22 28 29 22
4 4 5 8 9 7 8 8 10 8 5 6 5 2 4 4 2 3 2 5 13 14 15 23 26 16 17 24 27 38 38 39 35 36 37 46 60 57 38 33 24 15 21 23 24 25 26 25 23 19 16 21 23 22
4 6 7 5 4 4 3 3 8 8 6 6 7 7 7 5 3 3 2 4 12 11 13 11 18 22 13 18 26 29 28 34 43 43 35 33 32 35 38 34 31 30 28 26 25 23 21 19 17 16 17 19 21 21
4 4 6 9 8 7 4 4 9 4 7 5 5 5 3 3 4 3 5 2 6 8 10 7 9 13 16 20 26 28 27 31 34 35 34 31 28 24 22 22 21 20 16 14 13 13 12 13 13 14 16 22 24 22
4 7 8 21 8 12 7 6 7 7 6 7 6 6 5 7 5 10 9 18 14 7 7 1 10 11 9 14 26 25 28 30 30 27 23 22 22 19 17 15 12 8 3 2 6 8 10 13 14 16 19 21 23 24
6 10 12 18 12 9 14 13 11 14 13 7 6 5 6 9 19 17 15 10 10 9 10 8 13 17 11 6 15 18 17 16 14 13 13 12 8 7 4 3 4 4 4 5 6 6 5 7 10 15 20 21 23 25
8 10 10 11 9 10 16 16 24 23 24 30 28 24 25 40 40 17 15 10 6 8 9 12 19 20 13 4 8 10 9 7 8 8 9 9 8 6 7 5 1 2 1 2 4 5 5 7 8 8 11 19 23 24
9 8 9 12 8 14 17 24 32 32 29 28 24 22 18 10 37 36 27 24 17 15 16 22 22 21 12 7 3 7 5 4 6 9 9 9 8 8 8 6 7 4 5 9 11 12 12 10 9 7 9 14 19 25
9 12 8 5 5 7 5 3 13 19 20 19 24 19 15 10 12 36 39 29 30 27 19 17 17 13 9 6 2 3 4 5 7 7 11 14 10 4 3 8 18 21 20 21 22 21 20 18 15 11 11 15 24 27
8 6 7 9 8 10 9 7 7 11 14 14 27 29 19 8 11 30 34 30 21 20 18 15 12 10 7 7 7 6 8 11 11 13 16 14 9 6 2 11 20 27 19 9 7 11 15 18 19 17 16 23 27 18
Wind_Direction_500mb
268 257 250 250 264 273 263 295 320 341 354 346 358 11 15 340 258 333 20 219 217 260 267 250 243 225 222 215 271 339 294 74 274 213 210 194 199 194 219 229 235 189 171 160 163 229 252 346 137 187 92 32 160 157
273 278 255 242 250 255 259 258 281 328 351 17 27 27 34 358 359 300 340 321 293 279 264 275 269 249 241 234 284 317 311 315 294 292 265 237 190 181 202 239 199 220 205 184 198 201 164 260 276 300 234 165 155 148
248 251 254 242 237 246 258 256 254 299 350 8 7 10 10 4 342 6 348 329 325 303 299 290 323 194 246 240 242 235 253 221 89 33 329 302 260 210 190 219 222 222 192 227 190 248 272 265 230 258 208 157 150 150
255 247 244 248 238 234 239 246 258 269 325 351 1 358 340 348 323 326 343 328 316 303 297 292 304 287 288 258 227 232 220 197 276 354 9 304 273 341 256 18 260 252 174 213 231 267 310 291 230 219 159 147 144 140
265 256 246 238 242 230 224 231 241 260 292 329 350 0 1 306 309 321 316 299 262 247 294 287 306 95 12 241 223 217 225 235 253 245 195 241 261 273 244 289 247 212 224 212 236 213 265 336 206 174 156 152 149 144
259 254 253 245 245 222 214 224 238 256 269 288 317 326 321 296 314 341 67 112 81 195 288 298 312 322 28 325 229 223 231 218 212 204 221 226 231 222 229 231 248 239 228 279 300 125 175 195 185 169 167 156 149 144
260 257 254 247 242 233 227 233 236 246 261 275 289 304 305 289 286 275 193 212 190 174 284 290 294 290 324 319 224 220 210 204 212 218 227 238 234 201 242 237 284 240 276 320 236 167 134 179 184 198 169 156 150 144
249 252 249 243 241 241 240 242 242 244 251 259 283 302 298 274 268 278 273 252 257 248 228 278 280 299 355 314 285 197 187 199 213 219 220 221 222 219 243 229 227 227 257 268 193 140 155 179 226 210 181 161 156 154
246 248 247 241 235 248 248 249 244 234 236 247 278 289 281 268 212 154 312 316 222 211 215 248 268 299 343 357 300 232 187 191 208 218 218 216 218 220 222 206 219 224 234 250 176 171 169 182 196 192 178 169 168 167
243 243 242 241 237 236 247 248 234 219 216 235 241 250 136 177 261 274 210 264 225 205 220 243 236 262 325 324 298 317 232 237 207 212 189 231 235 226 222 213 221 231 234 223 205 192 209 192 190 184 186 182 184 175
241 241 243 242 237 234 235 233 217 196 195 191 184 167 183 264 320 114 225 223 220 246 218 243 242 269 279 241 259 255 301 265 224 194 212 220 235 223 219 229 234 245 242 239 237 236 230 198 183 181 183 185 181 173
241 239 239 239 234 226 225 219 204 190 191 180 165 178 216 207 183 254 202 172 215 255 211 220 236 223 252 227 236 192 235 253 228 137 224 247 231 221 219 225 234 232 239 242 234 229 229 199 196 193 186 182 174 173
240 237 233 233 221 221 217 208 199 189 183 171 161 177 189 176 224 218 200 206 228 216 225 220 278 249 243 219 244 229 221 237 266 219 229 248 242 230 223 228 233 220 223 229 222 216 222 203 197 194 180 173 169 165
232 228 222 212 211 209 203 195 186 184 173 176 161 187 232 189 231 208 229 247 260 268 284 283 267 244 220 201 232 230 242 266 269 306 244 79 344 311 281 239 214 199 204 215 204 206 202 193 185 173 168 164 167 167
215 201 200 205 201 203 182 190 191 183 159 169 171 226 224 242 261 260 276 279 281 283 280 269 245 237 245 246 205 243 244 244 232 280 346 320 315 302 270 207 187 183 192 185 179 177 176 171 160 153 153 154 159 159
180 189 203 211 199 171 176 179 188 150 160 178 222 249 245 264 260 231 265 274 296 293 295 221 241 248 237 223 203 225 250 251 347 318 311 325 316 294 191 168 175 177 174 163 156 155 153 151 148 144 143 145 146 149
181 187 182 153 143 164 178 182 140 162 182 199 234 239 252 274 264 260 266 283 307 283 260 212 232 231 286 195 216 225 285 320 314 309 324 322 352 132 147 155 161 161 157 156 150 143 137 137 141 140 135 132 130 129
147 155 171 172 169 173 171 132 166 170 213 226 247 247 234 245 267 278 290 315 314 265 237 252 295 255 290 248 209 339 318 321 315 321 319 62 103 119 134 131 137 141 140 140 144 144 145 145 141 137 135 134 132 130
139 153 145 157 165 137 124 174 193 214 225 231 257 267 265 271 281 294 307 317 196 308 300 265 277 331 345 305 310 307 310 321 318 309 135 134 133 131 131 135 137 138 137 135 137 140 142 144 143 141 139 137 137 139
133 145 142 142 141 129 128 159 197 241 242 228 246 261 261 274 295 312 334 141 20 322 335 335 299 276 279 297 290 286 299 316 311 102 111 131 134 138 135 138 137 136 132 134 136 135 134 138 139 137 135 134 136 140
133 139 153 168 162 24 147 176 229 236 254 250 279 274 285 291 292 318 355 170 252 7 342 315 322 335 350 310 287 292 306 186 147 114 115 119 120 118 130 136 137 134 134 136 136 136 136 138 141 145 145 146 147 145
148 148 160 171 197 221 245 210 216 217 231 269 286 270 279 298 346 5 0 61 57 22 356 341 342 347 13 61 96 86 103 115 124 122 124 127 130 114 117 132 143 136 138 142 143 145 149 153 157 163 167 169 166 160
159 179 201 199 193 223 244 200 198 212 221 192 276 266 240 315 336 343 75 55 73 8 13 4 342 10 33 70 73 95 84 71 84 99 121 120 135 124 135 134 144 149 149 155 158 158 161 169 178 185 184 187 186 178
215 222 212 215 196 226 203 195 200 188 177 221 204 229 220 273 359 45 81 60 26 23 28 44 29 14 42 43 45 77 89 84 101 113 96 120 131 125 116 115 129 143 148 161 170 178 184 189 188 184 184 182 179 181
282 219 228 245 224 215 206 178 162 188 197 184 201 220 145 159 120 85 50 351 359 29 36 71 73 49 26 12 59 90 86 89 94 95 110 139 123 123 122 117 125 144 131 134 140 143 139 140 148 146 160 174 181 185
259 219 216 271 255 219 261 168 162 157 160 172 207 148 154 159 137 87 76 44 354 16 29 57 80 85 78 56 66 95 100 93 89 87 98 113 125 127 125 119 116 105 111 119 127 133 139 145 157 172 185 188 196 205
286 273 268 277 280 295 281 29 112 133 170 149 143 145 134 88 61 59 335 343 3 347 351 21 108 93 60 60 73 86 96 97 93 94 95 105 112 115 117 115 112 115 124 132 145 155 166 183 194 200 211 217 216 219
288 303 308 327 44 42 31 38 26 29 21 37 66 54 59 28 359 328 307 299 280 274 282 346 150 129 83 76 82 95 108 108 104 100 98 105 108 106 102 102 106 110 120 232 237 228 224 226 225 225 226 226 228 228
17 0 4 31 44 46 35 21 31 25 15 42 71 61 67 34 28 3 340 316 270 230 220 210 178 167 156 89 90 96 106 126 122 112 103 98 83 61 36 347 318 313 299 280 262 248 242 243 243 240 232 222 218 219
48 55 41 37 30 42 32 88 81 74 75 86 96 100 73 47 46 59 58 61 138 182 203 199 185 184 181 148 88 92 103 112 137 138 125 110 92 71 32 355 244 161 197 257 262 270 284 292 286 270 244 229 217 215
60 69 61 43 55 89 114 93 89 82 77 72 79 67 51 52 37 54 71 76 73 94 121 145 163 177 179 195 61 80 89 98 120 119 120 102 97 94 68 60 65 29 288 275 264 258 262 276 290 272 237 216 198 193
58 96 106 92 71 98 129 35 69 72 65 61 49 46 51 43 42 20 38 74 88 84 106 136 155 162 174 213 144 102 87 81 141 157 158 151 145 127 26 355 343 321 291 273 264 257 247 245 234 232 241 229 210 195
124 116 105 116 126 179 170 120 118 113 87 63 39 35 31 54 63 18 29 47 68 83 90 98 111 122 145 156 167 157 152 156 162 147 141 150 168 194 304 339 348 358 349 337 287 256 246 238 224 217 223 226 190 189
Wind_Speed_850mb
24 23 22 21 17 14 12 10 12 9 6 5 5 6 7 5 4 6 5 3 12 9 20 21 14 10 6 5 5 10 6 2 4 9 9 7 8 12 7 11 5 9 11 7 3 4 11 10 16 13 2 4 39 39
18 17 21 22 18 13 12 12 9 6 6 6 8 8 6 6 6 5 6 7 10 15 17 22 24 20 34 25 10 7 5 6 5 5 2 3 6 9 9 5 9 8 10 7 14 8 5 7 12 22 15 30 35 40
18 15 12 19 20 14 10 9 7 6 7 8 8 7 8 4 7 6 6 10 14 17 28 19 4 5 26 45 39 13 9 10 2 12 7 4 8 4 9 9 7 10 15 7 5 14 8 14 18 21 17 33 44 41
17 18 17 14 21 21 14 10 8 7 6 8 9 8 5 5 8 9 9 8 8 10 9 10 4 6 15 16 27 44 35 10 7 13 7 5 5 4 3 2 5 4 16 15 7 21 14 13 21 21 33 48 45 39
13 12 13 14 13 19 19 12 8 7 6 8 8 9 5 7 8 11 13 11 13 6 8 24 49 3 11 23 39 30 34 43 23 9 7 5 8 3 4 4 10 12 12 18 9 17 15 8 20 42 50 46 45 46
13 11 10 10 11 14 19 16 13 10 10 9 9 8 7 10 10 10 2 2 3 7 5 9 20 13 9 10 25 50 54 31 16 12 13 14 21 10 6 6 12 12 8 15 15 3 11 20 33 37 46 46 43 39
16 15 14 10 10 11 19 20 18 15 14 13 12 13 13 13 10 4 1 2 12 9 5 12 12 10 25 14 10 27 32 22 26 16 15 18 12 17 12 17 11 15 10 10 10 19 11 18 31 25 42 45 42 39
21 21 18 15 13 12 14 15 19 21 18 14 12 13 12 10 11 10 9 15 17 11 7 6 8 10 13 4 1 12 16 25 20 17 9 21 19 14 14 30 45 20 34 21 15 6 27 32 39 31 46 46 42 40
23 22 19 18 16 14 13 12 13 14 14 13 11 9 9 6 2 0 2 2 8 12 4 6 5 6 18 11 5 5 14 10 15 15 17 16 16 20 14 26 34 53 65 26 19 41 42 53 56 55 52 45 40 39
26 24 21 19 18 17 14 12 12 12 13 10 7 4 1 3 2 6 4 2 6 12 11 9 10 10 13 14 5 4 9 8 10 16 13 13 27 45 25 33 46 54 49 47 22 26 39 39 60 67 60 48 41 40
31 30 29 26 23 23 20 14 14 18 15 8 7 4 3 2 3 1 0 4 2 6 9 10 16 17 13 11 8 6 5 6 8 10 13 12 20 33 46 58 54 48 46 41 55 45 42 49 61 57 54 49 41 35
35 35 33 31 29 27 23 18 18 24 14 12 8 4 4 3 5 3 4 5 7 6 8 8 6 14 13 14 13 10 5 5 9 5 7 10 12 36 56 70 79 73 56 40 40 45 45 54 55 52 53 50 40 34
32 31 32 30 30 27 25 23 24 27 18 12 5 4 3 5 6 7 9 7 6 7 7 7 7 8 10 13 12 7 7 8 3 6 7 6 10 23 44 54 54 62 53 43 43 46 44 52 51 48 56 47 41 33
26 27 26 26 26 29 31 25 31 34 20 7 9 6 7 7 8 8 7 5 8 14 25 29 18 8 12 9 8 7 9 5 4 7 8 3 24 30 24 32 32 47 51 42 46 51 48 45 48 52 52 47 37 29
25 22 22 23 26 29 25 27 38 41 11 8 8 6 11 11 9 8 13 14 21 31 29 10 10 8 5 8 7 6 6 8 8 7 8 31 43 32 23 26 36 50 49 42 46 51 53 55 66 61 48 37 29 28
17 20 22 21 27 34 24 33 40 23 10 8 7 7 9 8 11 9 12 28 21 17 15 12 5 6 9 5 8 10 6 5 6 10 31 38 26 14 14 29 46 59 51 53 52 59 68 75 67 55 42 33 29 29
15 13 20 26 27 26 32 35 24 9 9 8 9 17 22 19 19 21 18 20 21 11 5 4 7 9 3 7 6 5 6 8 25 28 39 23 7 11 26 43 57 56 59 62 65 74 69 56 50 50 52 48 44 39
16 18 23 31 37 36 27 13 7 8 9 14 11 10 14 20 20 25 20 18 10 6 5 4 8 5 4 3 3 3 15 31 20 21 24 8 16 25 37 49 58 64 78 85 78 70 60 58 58 61 58 52 46 40
18 24 25 33 45 23 8 13 6 6 12 8 15 21 19 19 24 22 25 21 3 13 19 4 4 4 4 6 16 31 33 33 26 17 7 14 28 40 51 61 76 83 76 70 61 61 60 60 64 58 50 44 39 34
25 39 30 40 29 7 6 6 9 4 5 4 10 11 10 12 15 16 12 9 9 14 5 5 4 9 12 38 28 30 35 24 10 21 30 29 38 51 66 71 74 74 73 68 66 68 65 63 56 50 44 39 34 30
39 27 24 33 8 1 6 6 4 7 5 6 7 7 8 12 9 7 4 6 5 5 6 12 33 48 33 18 14 9 8 2 11 23 44 39 45 43 44 65 69 67 68 67 62 59 53 50 46 40 35 30 26 23
21 16 8 12 5 4 5 12 6 3 5 5 5 4 6 6 4 4 7 4 6 7 13 30 45 37 42 22 20 15 23 34 37 39 48 57 58 37 48 49 59 50 48 50 49 46 41 36 32 29 27 26 22 18
12 10 5 8 5 5 5 12 9 7 5 3 3 4 1 3 3 3 4 5 6 18 23 28 21 38 44 49 47 53 47 44 51 45 41 52 56 42 41 34 40 44 41 38 36 33 31 27 24 21 21 25 24 20
3 5 6 8 17 6 8 8 8 5 5 4 4 2 3 1 5 3 3 5 8 13 19 22 14 26 42 40 37 30 29 30 25 35 41 40 41 42 39 33 34 32 28 25 24 26 27 25 23 22 22 28 29 22
4 4 5 8 9 7 8 8 10 8 5 6 5 2 4 4 2 3 2 5 13 14 15 23 26 16 17 24 27 38 38 39 35 36 37 46 60 57 38 33 24 15 21 23 24 25 26 25 23 19 16 21 23 22
4 6 7 5 4 4 3 3 8 8 6 6 7 7 7 5 3 3 2 4 12 11 13 11 18 22 13 18 26 29 28 34 43 43 35 33 32 35 38 34 31 30 28 26 25 23 21 19 17 16 17 19 21 21
4 4 6 9 8 7 4 4 9 4 7 5 5 5 3 3 4 3 5 2 6 8 10 7 9 13 16 20 26 28 27 31 34 35 34 31 28 24 22 22 21 20 16 14 13 13 12 13 13 14 16 22 24 22
4 7 8 21 8 12 7 6 7 7 6 7 6 6 5 7 5 10 9 18 14 7 7 1 10 11 9 14 26 25 28 30 30 27 23 22 22 19 17 15 12 8 3 2 6 8 10 13 14 16 19 21 23 24
6 10 12 18 12 9 14 13 11 14 13 7 6 5 6 9 19 17 15 10 10 9 10 8 13 17 11 6 15 18 17 16 14 13 13 12 8 7 4 3 4 4 4 5 6 6 5 7 10 15 20 21 23 25
8 10 10 11 9 10 16 16 24 23 24 30 28 24 25 40 40 17 15 10 6 8 9 12 19 20 13 4 8 10 9 7 8 8 9 9 8 6 7 5 1 2 1 2 4 5 5 7 8 8 11 19 23 24
9 8 9 12 8 14 17 24 32 32 29 28 24 22 18 10 37 36 27 24 17 15 16 22 22 21 12 7 3 7 5 4 6 9 9 9 8 8 8 6 7 4 5 9 11 12 12 10 9 7 9 14 19 25
9 12 8 5 5 7 5 3 13 19 20 19 24 19 15 10 12 36 39 29 30 27 19 17 17 13 9 6 2 3 4 5 7 7 11 14 10 4 3 8 18 21 20 21 22 21 20 18 15 11 11 15 24 27
8 6 7 9 8 10 9 7 7 11 14 14 27 29 19 8 11 30 34 30 21 20 18 15 12 10 7 7 7 6 8 11 11 13 16 14 9 6 2 11 20 27 19 9 7 11 15 18 19 17 16 23 27 18
Wind_Direction_850mb
268 257 250 250 264 273 263 295 320 341 354 346 358 11 15 340 258 333 20 219 217 260 267 250 243 225 222 215 271 339 294 74 274 213 210 194 199 194 219 229 235 189 171 160 163 229 252 346 137 187 92 32 160 157
273 278 255 242 250 255 259 258 281 328 351 17 27 27 34 358 359 300 340 321 293 279 264 275 269 249 241 234 284 317 311 315 294 292 265 237 190 181 202 239 199 220 205 184 198 201 164 260 276 300 234 165 155 148
248 251 254 242 237 246 258 256 254 299 350 8 7 10 10 4 342 6 348 329 325 303 299 290 323 194 246 240 242 235 253 221 89 33 329 302 260 210 190 219 222 222 192 227 190 248 272 265 230 258 208 157 150 150
255 247 244 248 238 234 239 246 258 269 325 351 1 358 340 348 323 326 343 328 316 303 297 292 304 287 288 258 227 232 220 197 276 354 9 304 273 341 256 18 260 252 174 213 231 267 310 291 230 219 159 147 144 140
265 256 246 238 242 230 224 231 241 260 292 329 350 0 1 306 309 321 316 299 262 247 294 287 306 95 12 241 223 217 225 235 253 245 195 241 261 273 244 289 247 212 224 212 236 213 265 336 206 174 156 152 149 144
259 254 253 245 245 222 214 224 238 256 269 288 317 326 321 296 314 341 67 112 81 195 288 298 312 322 28 325 229 223 231 218 212 204 221 226 231 222 229 231 248 239 228 279 300 125 175 195 185 169 167 156 149 144
260 257 254 247 242 233 227 233 236 246 261 275 289 304 305 289 286 275 193 212 190 174 284 290 294 290 324 319 224 220 210 204 212 218 227 238 234 201 242 237 284 240 276 320 236 167 134 179 184 198 169 156 150 144
249 252 249 243 241 241 240 242 242 244 251 259 283 302 298 274 268 278 273 252 257 248 228 278 280 299 355 314 285 197 187 199 213 219 220 221 222 219 243 229 227 227 257 268 193 140 155 179 226 210 181 161 156 154
246 248 247 241 235 248 248 249 244 234 236 247 278 289 281 268 212 154 312 316 222 211 215 248 268 299 343 357 300 232 187 191 208 218 218 216 218 220 222 206 219 224 234 250 176 171 169 182 196 192 178 169 168 167
243 243 242 241 237 236 247 248 234 219 216 235 241 250 136 177 261 274 210 264 225 205 220 243 236 262 325 324 298 317 232 237 207 212 189 231 235 226 222 213 221 231 234 223 205 192 209 192 190 184 186 182 184 175
241 241 243 242 237 234 235 233 217 196 195 191 184 167 183 264 320 114 225 223 220 246 218 243 242 269 279 241 259 255 301 265 224 194 212 220 235 223 219 229 234 245 242 239 237 236 230 198 183 181 183 185 181 173
241 239 239 239 234 226 225 219 204 190 191 180 165 178 216 207 183 254 202 172 215 255 211 220 236 223 252 227 236 192 235 253 228 137 224 247 231 221 219 225 234 232 239 242 234 229 229 199 196 193 186 182 174 173
240 237 233 233 221 221 217 208 199 189 183 171 161 177 189 176 224 218 200 206 228 216 225 220 278 249 243 219 244 229 221 237 266 219 229 248 242 230 223 228 233 220 223 229 222 216 222 203 197 194 180 173 169 165
232 228 222 212 211 209 203 195 186 184 173 176 161 187 232 189 231 208 229 247 260 268 284 283 267 244 220 201 232 230 242 266 269 306 244 79 344 311 281 239 214 199 204 215 204 206 202 193 185 173 168 164 167 167
215 201 200 205 201 203 182 190 191 183 159 169 171 226 224 242 261 260 276 279 281 283 280 269 245 237 245 246 205 243 244 244 232 280 346 320 315 302 270 207 187 183 192 185 179 177 176 171 160 153 153 154 159 159
180 189 203 211 199 171 176 179 188 150 160 178 222 249 245 264 260 231 265 274 296 293 295 221 241 248 237 223 203 225 250 251 347 318 311 325 316 294 191 168 175 177 174 163 156 155 153 151 148 144 143 145 146 149
181 187 182 153 143 164 178 182 140 162 182 199 234 239 252 274 264 260 266 283 307 283 260 212 232 231 286 195 216 225 285 320 314 309 324 322 352 132 147 155 161 161 157 156 150 143 137 137 141 140 135 132 130 129
147 155 171 172 169 173 171 132 166 170 213 226 247 247 234 245 267 278 290 315 314 265 237 252 295 255 290 248 209 339 318 321 315 321 319 62 103 119 134 131 137 141 140 140 144 144 145 145 141 137 135 134 132 130
139 153 145 157 165 137 124 174 193 214 225 231 257 267 265 271 281 294 307 317 196 308 300 265 277 331 345 305 310 307 310 321 318 309 135 134 133 131 131 135 137 138 137 135 137 140 142 144 143 141 139 137 137 139
133 145 142 142 141 129 128 159 197 241 242 228 246 261 261 274 295 312 334 141 20 322 335 335 299 276 279 297 290 286 299 316 311 102 111 131 134 138 135 138 137 136 132 134 136 135 134 138 139 137 135 134 136 140
133 139 153 168 162 24 147 176 229 236 254 250 279 274 285 291 292 318 355 170 252 7 342 315 322 335 350 310 287 292 306 186 147 114 115 119 120 118 130 136 137 134 134 136 136 136 136 138 141 145 145 146 147 145
148 148 160 171 197 221 245 210 216 217 231 269 286 270 279 298 346 5 0 61 57 22 356 341 342 347 13 61 96 86 103 115 124 122 124 127 130 114 117 132 143 136 138 142 143 145 149 153 157 163 167 169 166 160
159 179 201 199 193 223 244 200 198 212 221 192 276 266 240 315 336 343 75 55 73 8 13 4 342 10 33 70 73 95 84 71 84 99 121 120 135 124 135 134 144 149 149 155 158 158 161 169 178 185 184 187 186 178
215 222 212 215 196 226 203 195 200 188 177 221 204 229 220 273 359 45 81 60 26 23 28 44 29 14 42 43 45 77 89 84 101 113 96 120 131 125 116 115 129 143 148 161 170 178 184 189 188 184 184 182 179 181
282 219 228 245 224 215 206 178 162 188 197 184 201 220 145 159 120 85 50 351 359 29 36 71 73 49 26 12 59 90 86 89 94 95 110 139 123 123 122 117 125 144 131 134 140 143 139 140 148 146 160 174 181 185
259 219 216 271 255 219 261 168 162 157 160 172 207 148 154 159 137 87 76 44 354 16 29 57 80 85 78 56 66 95 100 93 89 87 98 113 125 127 125 119 116 105 111 119 127 133 139 145 157 172 185 188 196 205
286 273 268 277 280 295 281 29 112 133 170 149 143 145 134 88 61 59 335 343 3 347 351 21 108 93 60 60 73 86 96 97 93 94 95 105 112 115 117 115 112 115 124 132 145 155 166 183 194 200 211 217 216 219
288 303 308 327 44 42 31 38 26 29 21 37 66 54 59 28 359 328 307 299 280 274 282 346 150 129 83 76 82 95 108 108 104 100 98 105 108 106 102 102 106 110 120 232 237 228 224 226 225 225 226 226 228 228
17 0 4 31 44 46 35 21 31 25 15 42 71 61 67 34 28 3 340 316 270 230 220 210 178 167 156 89 90 96 106 126 122 112 103 98 83 61 36 347 318 313 299 280 262 248 242 243 243 240 232 222 218 219
48 55 41 37 30 42 32 88 81 74 75 86 96 100 73 47 46 59 58 61 138 182 203 199 185 184 181 148 88 92 103 112 137 138 125 110 92 71 32 355 244 161 197 257 262 270 284 292 286 270 244 229 217 215
60 69 61 43 55 89 114 93 89 82 77 72 79 67 51 52 37 54 71 76 73 94 121 145 163 177 179 195 61 80 89 98 120 119 120 102 97 94 68 60 65 29 288 275 264 258 262 276 290 272 237 216 198 193
58 96 106 92 71 98 129 35 69 72 65 61 49 46 51 43 42 20 38 74 88 84 106 136 155 162 174 213 144 102 87 81 141 157 158 151 145 127 26 355 343 321 291 273 264 257 247 245 234 232 241 229 210 195
124 116 105 116 126 179 170 120 118 113 87 63 39 35 31 54 63 18 29 47 68 83 90 98 111 122 145 156 167 157 152 156 162 147 141 150 168 194 304 339 348 358 349 337 287 256 246 238 224 217 223 226 190 189